Wind_Speed
3 1 1 4 6 7 6 7 8 7 5 2 3 4 5 6 6 5 4 5 1 2 4 3 2 6 8 8 12 13 19 21 20 23 24 27 30 33 35 34 32 30 26 22 20 18 18 19 20 20 19 18 16 13 11 10 8 8 7 6 6 7 9 10 11 12 13 15 16 19 20 22 23 24 26 27 28 29 30 30 31 33 33 33 33 33
3 0 5 8 9 8 6 6 5 5 4 3 3 5 5 4 7 5 2 5 3 1 2 3 5 6 7 8 11 15 18 15 16 20 22 26 29 31 33 33 31 28 26 25 25 25 26 26 26 26 25 25 23 20 18 17 16 15 14 13 12 12 12 13 13 13 14 15 16 19 20 22 23 24 25 27 27 28 29 30 31 32 32 32 32 32
2 4 9 8 6 5 3 2 3 1 2 2 1 2 4 3 5 5 2 4 4 2 2 4 6 6 7 7 11 16 15 14 20 23 23 27 29 29 31 31 29 28 28 28 27 26 26 26 26 27 27 28 26 24 22 21 20 19 18 18 17 17 17 17 17 17 17 17 17 19 20 22 24 24 25 26 26 26 28 29 29 30 30 31 31 31
1 5 7 3 4 4 1 1 4 2 2 2 2 2 4 3 2 3 3 4 3 0 2 3 6 3 5 7 10 14 16 19 24 27 28 29 30 29 30 29 28 28 27 27 26 25 25 25 27 28 28 29 29 26 25 23 23 22 21 20 20 21 21 21 21 21 21 21 21 20 21 21 23 24 24 25 25 25 26 26 27 28 28 29 30 30
5 4 1 3 4 3 2 3 3 1 3 3 4 4 4 3 2 4 3 4 4 3 1 3 5 2 4 6 6 9 14 18 21 27 28 28 30 30 30 29 27 25 24 25 25 25 24 25 28 29 29 29 30 27 26 25 24 23 23 22 23 24 25 25 26 27 27 27 26 26 26 25 25 25 25 25 25 25 25 27 27 28 28 29 29 29
6 3 1 3 4 4 2 2 1 4 2 4 4 6 6 4 2 1 4 5 4 3 1 3 4 2 3 5 4 5 8 11 15 21 22 23 28 29 29 27 25 24 23 23 24 24 24 25 27 28 28 29 29 27 26 25 24 23 23 23 24 26 26 27 28 29 29 29 29 30 31 32 31 31 30 29 29 29 28 29 29 29 29 30 30 30
3 3 3 4 4 5 4 2 3 4 3 3 3 4 5 4 2 3 4 4 1 2 2 3 3 2 2 4 3 3 7 8 10 13 16 21 25 26 26 23 23 24 23 22 23 24 25 26 27 28 29 29 27 24 23 22 21 21 21 22 23 24 25 26 28 28 28 28 29 29 30 31 31 32 33 32 31 31 31 31 30 30 30 30 31 31
0 4 5 5 5 4 2 2 3 5 5 3 3 4 5 2 2 1 2 1 2 2 3 2 4 3 0 3 1 3 8 8 7 8 11 17 22 23 23 22 22 24 23 23 23 24 26 27 28 29 29 27 22 18 18 18 18 19 19 20 21 22 24 25 25 24 25 27 27 28 29 30 30 31 33 32 31 31 31 32 31 31 31 30 31 31
0 2 1 3 4 2 2 3 4 5 2 4 4 3 1 1 2 3 4 2 1 2 4 4 3 2 1 3 2 2 7 6 6 5 6 12 18 21 22 21 23 25 24 23 24 24 25 28 29 27 25 22 18 15 13 13 14 15 16 18 19 21 24 24 23 23 24 25 25 26 28 29 30 31 32 32 32 31 31 32 32 31 31 31 31 32
1 0 2 4 2 2 5 5 4 4 1 3 3 3 2 2 2 2 4 3 2 3 2 4 1 2 1 1 1 2 5 4 3 3 4 10 16 20 22 21 24 27 25 22 23 25 27 28 25 21 19 18 16 14 11 9 10 12 14 17 20 21 22 22 22 23 24 25 25 27 28 30 32 33 35 35 35 34 33 33 33 34 34 33 33 33
1 0 1 2 1 3 3 3 2 3 2 1 3 2 4 5 4 3 2 3 4 2 5 5 2 3 2 0 1 2 1 4 4 3 4 8 17 24 26 24 25 26 25 24 26 28 26 23 19 16 17 17 15 13 10 11 14 16 19 22 23 24 23 24 25 25 26 26 27 28 30 32 35 36 38 39 39 39 37 36 35 36 37 36 34 33
4 2 1 1 2 1 0 1 1 1 1 3 3 3 3 3 3 4 4 4 3 3 6 4 3 4 3 1 2 4 2 3 5 5 4 8 17 25 27 25 24 24 26 29 31 28 23 19 17 18 19 19 18 17 18 20 22 24 26 28 30 30 29 29 28 28 29 29 29 30 31 33 34 35 37 38 40 41 40 39 38 37 37 35 34 34
3 1 3 3 2 1 2 1 4 4 4 5 3 4 3 3 4 3 3 2 1 4 3 1 0 3 2 2 3 2 2 2 2 6 8 12 18 24 26 25 24 25 28 32 30 24 21 20 21 23 24 24 25 26 27 28 30 31 32 34 35 35 34 33 32 32 32 33 34 35 35 35 35 35 36 36 37 38 39 40 39 37 36 35 35 36
4 4 4 2 1 2 3 2 2 3 4 4 1 3 3 2 2 2 3 1 2 4 3 2 3 3 1 1 2 2 6 10 14 16 16 19 22 24 26 25 25 27 31 31 24 19 21 23 24 26 27 28 30 31 32 33 34 36 38 39 39 39 38 36 35 35 36 38 38 39 40 40 40 39 39 38 37 37 38 39 38 37 36 36 37 39
1 3 3 1 1 3 3 2 3 2 2 2 2 4 3 3 3 3 3 2 2 3 4 3 3 2 3 3 3 5 11 18 22 22 22 24 25 27 27 25 25 29 30 25 19 18 22 25 26 28 30 31 33 34 35 36 37 38 39 39 40 39 39 38 38 38 38 39 39 40 40 39 39 39 39 39 38 37 38 39 39 38 37 37 40 41
1 4 4 1 1 1 2 1 2 3 1 2 1 3 1 3 3 2 3 4 3 1 3 2 2 1 3 5 6 9 15 20 23 24 25 25 26 27 25 23 24 28 26 20 17 21 24 26 27 30 32 34 34 34 35 36 36 37 38 39 39 39 39 39 37 36 35 35 36 37 36 36 35 36 36 37 37 36 36 38 40 41 41 43 44 43
1 4 5 2 2 1 2 1 0 2 0 0 1 0 2 3 5 2 2 1 3 2 2 1 3 0 3 5 5 8 11 13 16 20 21 20 21 22 20 20 23 26 22 17 19 24 25 26 29 32 34 34 34 34 35 36 37 39 40 41 41 40 37 35 33 33 33 35 36 37 37 38 38 38 38 38 38 36 34 35 38 38 39 40 40 39
1 3 5 1 1 1 1 1 2 1 1 2 1 3 1 2 4 3 0 3 4 1 2 1 5 4 3 4 3 8 9 8 9 12 14 15 17 18 17 20 25 24 18 16 20 24 25 28 31 32 32 32 33 35 38 41 42 42 42 41 39 36 34 33 34 36 38 39 41 41 41 41 40 40 39 39 39 39 38 37 37 37 37 37 38 39
1 2 7 1 1 2 2 2 3 3 0 2 2 2 1 2 0 1 1 0 1 1 3 3 2 3 2 1 2 7 8 7 8 9 10 13 17 18 18 23 28 23 17 18 22 24 27 31 31 30 31 34 37 40 42 44 44 42 41 39 36 35 36 37 38 39 41 42 41 41 40 40 40 40 38 36 37 39 40 41 41 42 43 43 44 45
1 1 4 3 1 2 3 3 2 4 3 2 2 2 1 3 3 1 1 2 2 1 2 2 2 1 1 1 3 6 6 7 8 8 9 14 18 19 21 27 29 22 18 21 25 27 30 31 30 31 34 39 42 43 43 44 42 40 41 40 38 39 40 38 38 40 42 42 40 39 40 41 42 40 36 34 35 38 40 42 43 43 44 45 45 45
2 1 3 5 3 2 2 1 1 2 2 2 3 3 3 1 0 0 0 1 3 2 3 1 2 1 2 2 5 6 6 7 9 9 11 16 18 19 22 27 25 17 18 24 27 29 31 31 32 35 39 43 43 43 43 42 39 39 41 42 42 41 40 38 40 42 41 40 40 43 46 47 45 39 36 36 37 39 41 43 43 43 44 44 43 42
1 1 2 4 4 2 3 3 2 3 2 2 2 1 1 1 1 0 2 2 2 2 3 2 2 2 3 3 4 6 7 9 13 12 12 16 16 18 23 24 19 16 20 27 29 30 32 34 37 40 42 42 40 41 43 41 39 41 43 44 44 41 39 41 42 40 39 41 45 48 48 46 42 37 36 37 38 40 41 43 44 45 46 46 45 42
1 2 0 4 4 4 6 4 1 2 1 2 2 2 2 1 2 4 2 3 1 1 2 2 1 2 2 5 7 8 9 10 14 14 13 15 15 19 24 19 16 18 24 30 31 31 32 35 38 40 40 38 38 41 43 40 40 42 44 45 43 41 42 42 39 38 41 46 49 48 46 42 38 34 35 38 41 44 46 48 48 46 45 44 43 42
1 2 1 4 4 4 5 3 3 2 2 3 2 3 2 2 2 5 4 3 1 2 0 1 1 2 2 6 11 12 10 9 13 15 14 13 15 20 20 15 18 24 27 30 30 29 32 36 38 38 36 35 38 42 42 40 41 44 46 44 42 43 44 40 39 42 47 49 49 47 42 37 34 33 38 44 48 52 54 53 49 43 38 36 37 38
2 0 2 3 4 5 6 5 5 4 3 2 2 4 3 4 4 2 1 2 0 1 2 2 2 3 3 5 9 9 8 6 9 14 14 14 20 25 20 17 22 25 26 28 28 29 34 37 36 34 33 36 41 43 42 42 45 47 47 44 44 45 42 40 42 46 49 50 47 42 35 32 33 40 47 52 55 56 55 50 43 37 33 32 35 37
1 2 2 2 0 1 2 3 3 3 3 2 3 6 5 5 5 1 1 4 1 2 3 2 3 2 2 2 4 6 8 8 12 20 21 21 27 28 20 19 22 23 26 28 29 33 38 37 33 32 36 41 44 44 44 46 48 48 46 45 45 42 40 42 45 47 49 48 40 33 32 35 42 49 53 54 55 53 48 41 36 33 32 33 38 41
1 0 1 4 5 4 4 5 4 1 2 2 4 8 7 5 5 4 4 2 1 2 3 2 2 2 1 4 8 10 12 13 17 25 25 24 28 25 18 19 22 24 27 29 32 38 39 35 33 36 42 45 45 44 45 47 47 46 46 47 44 39 40 45 46 48 49 43 34 34 41 46 50 52 52 51 50 46 37 32 31 31 31 34 37 40
3 2 2 2 3 5 5 3 2 4 4 4 4 6 7 7 8 9 5 1 1 3 3 3 3 5 3 5 9 11 11 11 16 22 22 24 27 22 18 21 24 27 30 32 35 37 34 33 36 42 46 46 45 45 46 46 45 44 45 44 41 40 44 46 47 50 48 37 33 42 49 51 52 51 49 48 45 40 33 31 33 34 35 35 34 35
4 1 2 1 3 6 4 1 7 9 7 6 6 6 7 8 9 8 3 0 3 3 3 4 6 5 3 4 8 11 12 13 17 20 22 25 25 19 19 24 26 30 32 34 35 33 31 35 40 44 46 45 44 44 45 45 45 45 44 42 42 45 46 47 49 50 44 36 39 47 51 51 50 49 47 43 40 35 32 35 39 41 43 44 43 42
3 1 2 1 2 6 6 4 8 10 7 7 8 6 5 6 6 5 1 1 1 1 1 4 6 3 1 6 10 13 15 17 19 21 24 26 22 19 22 25 29 33 34 34 34 33 35 39 42 44 45 43 42 43 45 46 46 46 45 45 48 49 47 48 50 46 41 43 48 50 49 49 48 47 43 37 33 33 36 42 47 49 51 52 53 53
2 2 2 3 3 5 5 5 7 8 9 9 7 6 6 7 6 5 3 3 3 2 3 5 4 3 2 10 14 14 16 18 19 23 26 23 18 20 25 29 34 37 34 33 35 36 38 41 43 45 44 42 42 44 45 46 47 46 47 48 49 48 48 48 46 42 43 48 50 49 48 49 47 42 36 34 37 43 47 51 53 54 54 53 52 51
3 2 3 5 4 3 1 5 5 6 8 9 8 8 7 8 6 4 3 3 2 2 4 5 4 3 5 12 15 13 16 18 18 24 27 20 17 21 27 33 38 36 34 35 38 38 40 43 45 45 43 42 44 45 44 46 47 47 48 48 48 49 49 48 45 45 48 49 48 48 48 46 43 40 41 45 49 52 53 52 50 49 47 45 41 38
2 2 2 3 2 3 2 2 4 3 4 3 4 7 3 4 7 5 1 3 3 1 2 3 4 5 9 14 14 13 17 17 19 25 24 16 20 25 31 37 37 33 34 36 37 38 41 44 44 41 40 42 43 43 44 45 45 45 46 48 49 50 50 50 49 49 50 49 48 48 45 43 43 47 53 55 55 54 52 50 46 43 40 39 37 37
2 3 0 1 1 3 5 2 2 3 2 4 0 5 3 3 8 9 2 3 4 3 1 3 5 7 11 13 12 16 18 17 22 26 17 14 25 32 36 38 32 30 34 35 35 38 41 42 40 39 40 40 41 42 43 43 42 42 44 46 49 51 50 50 50 50 50 49 48 46 45 47 51 55 58 56 54 52 49 46 44 42 42 43 46 47
3 3 0 1 2 3 4 5 4 1 3 5 3 8 7 1 5 8 1 4 4 4 3 5 7 8 11 13 15 19 21 22 27 23 10 14 29 34 35 34 29 30 35 34 35 39 40 39 38 39 40 41 42 43 43 42 42 44 45 46 48 50 50 50 50 50 48 47 47 46 49 54 56 57 57 55 52 50 48 47 46 47 47 48 49 49
1 2 1 1 2 1 3 4 1 3 1 1 1 8 10 4 5 8 2 2 2 4 5 6 8 11 15 18 20 22 25 29 27 14 5 16 31 33 32 31 30 34 35 33 36 39 38 37 37 38 40 42 43 44 42 42 44 46 48 49 49 49 49 50 50 49 46 45 46 49 53 56 56 56 56 54 52 51 50 49 49 48 48 47 47 45
3 2 2 2 1 2 1 2 2 1 2 3 3 7 8 5 5 7 4 2 2 6 7 8 9 13 19 20 22 26 30 29 17 4 6 21 31 33 32 30 32 35 35 34 38 38 35 36 37 37 40 43 44 43 42 43 45 47 49 50 50 50 49 49 49 46 44 44 47 52 55 55 54 54 54 52 52 52 50 49 48 47 46 46 46 45
7 4 3 2 1 2 3 2 3 2 3 1 2 8 11 10 10 8 5 2 4 9 11 11 11 16 20 21 23 26 26 19 8 4 15 28 33 33 32 32 33 34 34 37 40 38 36 37 37 39 42 44 44 42 42 44 45 47 49 49 49 49 49 49 48 46 45 48 52 55 55 53 52 52 52 51 50 49 48 47 47 46 45 45 45 45
10 6 5 4 3 3 3 1 1 3 3 1 4 10 14 16 15 7 2 2 4 12 15 14 14 17 18 19 22 21 15 9 8 14 28 37 37 35 34 35 35 33 34 38 39 36 36 36 37 41 44 44 44 42 42 44 45 47 48 47 47 48 47 46 45 47 49 53 55 55 53 52 52 50 49 49 47 46 45 45 46 45 45 45 45 44
8 5 5 5 3 1 1 0 2 2 2 1 7 12 16 17 12 5 1 4 6 16 20 18 17 19 18 20 20 14 8 6 12 24 36 40 39 37 37 36 34 33 38 41 38 36 36 36 38 43 44 44 44 44 44 46 47 48 48 47 46 46 44 41 42 47 52 54 54 53 53 52 51 49 47 46 44 43 43 44 45 46 45 45 44 43
4 3 3 4 2 2 1 1 4 2 2 5 12 15 17 15 6 2 2 7 13 21 22 20 20 19 19 20 18 13 12 16 22 31 36 36 37 39 39 35 32 35 39 40 38 37 38 39 41 42 42 42 42 43 45 47 48 48 48 47 48 46 43 42 46 50 53 53 52 52 52 50 48 46 44 43 42 43 44 44 45 45 45 45 44 43
3 3 3 2 1 3 0 1 4 2 1 9 16 13 12 9 2 2 7 13 19 22 20 19 19 19 19 21 19 18 23 28 29 31 32 33 36 39 37 34 36 40 41 39 37 37 39 42 44 44 42 41 41 42 44 46 46 47 47 48 48 46 45 48 51 53 53 52 52 52 51 48 45 43 42 42 42 43 45 45 45 44 44 43 42 41
1 1 3 2 1 2 2 2 4 3 2 12 14 7 6 5 2 7 13 15 16 18 18 18 18 18 21 23 23 25 29 30 29 30 32 34 35 34 32 34 39 42 41 39 38 38 40 43 45 44 43 43 42 43 45 45 45 46 47 48 48 48 49 52 52 53 52 52 52 51 49 46 43 42 42 43 43 44 45 45 44 44 43 42 40 39
1 2 1 3 1 2 1 1 1 1 5 13 10 2 3 4 5 9 12 14 16 17 18 19 19 20 23 25 27 30 31 30 30 31 33 35 34 31 32 36 40 40 39 38 38 39 41 44 44 43 43 43 43 44 44 43 44 46 47 48 48 50 52 53 52 52 53 52 51 50 47 44 42 42 43 43 43 44 44 44 44 43 42 39 38 38
1 1 3 4 1 1 4 4 2 4 9 10 6 4 6 7 9 11 14 17 19 17 17 20 23 26 27 28 30 32 30 30 32 32 33 34 31 30 34 38 38 37 37 38 39 40 42 43 43 43 44 44 44 43 42 42 44 46 48 49 50 51 52 53 53 53 52 51 50 48 45 43 43 44 44 44 43 43 43 43 43 42 40 38 37 36
2 6 3 2 3 5 5 4 5 8 12 10 4 6 12 13 15 19 20 18 16 15 18 22 25 28 29 29 29 29 28 29 31 33 33 31 30 32 36 36 35 35 37 38 40 41 42 42 42 44 45 46 44 42 42 43 43 44 47 49 50 51 51 52 52 52 51 50 48 46 44 44 45 46 46 45 44 43 42 42 42 41 39 38 36 35
4 10 6 1 3 4 2 1 6 12 19 15 7 9 18 21 21 22 19 15 14 17 21 23 24 27 29 27 26 26 26 27 30 32 31 30 32 36 36 34 35 36 38 39 41 41 42 42 43 44 46 46 44 42 43 44 44 45 47 48 49 50 50 51 52 51 50 48 47 44 43 44 45 46 46 46 44 43 43 42 40 39 38 37 36 35
5 8 5 1 2 3 5 6 11 18 21 14 8 15 23 23 20 18 15 14 18 20 22 23 25 27 28 27 26 26 26 27 29 30 30 31 34 36 34 34 37 38 38 39 40 40 40 41 42 44 45 45 43 43 44 45 46 47 47 48 49 50 50 51 50 49 48 47 44 43 42 43 44 45 46 46 44 43 42 41 40 38 36 34 34 34
5 5 2 1 3 5 7 8 14 16 12 6 10 20 23 19 17 16 16 18 22 24 25 26 26 26 26 26 26 25 25 27 28 29 31 33 34 34 35 37 38 38 39 40 39 39 40 40 42 44 44 43 42 43 44 45 46 47 47 47 48 49 51 51 49 48 47 45 43 42 42 43 43 44 44 45 45 43 41 39 38 36 34 33 32 29
3 2 1 2 3 3 3 7 11 9 6 9 17 22 19 16 16 17 19 23 25 26 27 28 28 27 25 24 23 23 25 28 30 30 31 32 32 33 35 37 38 38 38 38 38 39 39 40 41 42 42 41 42 43 44 46 47 47 46 47 48 49 50 50 48 47 45 44 42 41 42 43 43 43 43 43 44 45 44 42 39 34 32 33 31 25
2 2 2 2 3 6 8 11 13 11 12 16 20 19 16 16 17 18 22 25 27 27 28 29 30 29 26 23 21 22 25 29 30 30 31 31 31 33 34 35 36 37 37 37 38 40 40 41 42 41 40 40 41 42 44 46 46 46 46 46 47 49 49 47 46 46 44 42 41 41 41 42 42 42 42 41 42 44 45 46 44 39 35 33 30 24
Wind_Direction
87 33 260 222 228 226 216 195 211 224 204 234 224 215 248 250 272 274 275 309 84 150 266 256 272 299 313 337 346 21 63 66 66 73 73 79 82 81 83 82 82 81 77 77 74 68 63 58 54 52 49 44 43 41 35 32 25 18 11 358 346 335 331 329 324 320 317 312 309 306 304 305 307 306 305 303 304 304 303 303 303 303 304 305 304 304
81 199 241 228 225 217 220 211 206 220 215 236 233 249 275 243 259 267 241 318 5 121 291 33 38 340 349 1 8 44 61 48 56 73 74 81 83 83 85 85 84 80 74 70 65 60 56 52 49 45 42 38 36 34 31 29 26 22 19 16 13 7 0 355 349 343 336 329 319 312 309 306 304 304 303 303 303 303 302 303 304 305 305 305 304 304
38 249 248 234 212 194 219 200 144 173 212 220 200 248 279 259 273 292 308 328 11 94 279 20 48 17 18 30 28 43 60 58 65 76 79 84 84 84 87 87 85 79 71 65 60 56 52 48 43 39 35 31 27 25 23 20 18 14 11 8 4 359 356 352 349 346 342 339 331 323 318 313 308 307 305 303 303 303 303 303 304 304 303 302 301 301
246 252 256 214 151 157 250 29 92 40 353 212 181 189 262 282 311 284 314 329 338 81 253 24 54 33 19 45 41 41 63 70 71 78 80 82 84 84 85 82 79 75 69 63 57 53 48 43 38 32 27 21 16 14 13 11 10 7 4 1 357 354 352 349 345 343 341 339 335 330 325 322 317 314 311 307 305 304 303 301 301 300 299 298 297 296
236 253 289 90 92 137 234 346 72 116 319 275 209 195 235 266 225 220 285 327 334 352 12 63 56 30 19 54 47 37 61 67 70 77 76 79 84 84 80 76 73 69 64 60 54 49 45 39 33 28 22 15 9 6 4 3 2 0 360 356 354 353 352 351 350 348 346 343 340 336 333 331 329 326 323 319 315 313 310 306 303 301 299 297 296 295
261 289 47 89 64 75 131 302 233 181 266 308 239 202 196 201 207 280 341 3 20 356 323 64 53 332 3 58 49 24 53 55 60 70 72 77 82 82 80 75 70 64 60 56 51 48 45 38 31 25 18 9 4 359 356 356 356 355 355 353 352 353 353 353 353 350 348 346 344 342 340 339 337 335 333 331 328 326 325 322 317 314 310 306 302 299
274 3 48 105 92 70 73 280 245 163 128 311 255 182 148 131 41 357 11 35 56 248 270 71 111 223 335 57 48 42 68 58 54 63 69 79 84 84 82 76 68 61 56 55 52 48 43 34 24 16 8 2 1 359 353 349 353 355 354 352 352 352 352 351 351 349 346 344 343 341 339 337 335 333 332 332 330 328 328 327 325 324 323 319 313 307
201 25 32 70 80 71 58 287 230 135 118 251 244 121 105 78 321 301 102 115 227 240 319 1 131 164 120 115 164 70 78 64 53 59 69 83 88 88 81 73 67 58 52 55 53 46 36 24 13 5 1 359 359 3 358 352 359 2 357 355 353 350 349 349 348 345 342 341 339 337 334 332 330 329 327 327 325 324 324 323 322 323 323 323 320 316
325 28 27 98 62 28 255 236 195 133 111 251 219 130 116 240 215 173 135 178 253 42 327 318 105 130 207 167 200 50 76 73 72 78 83 91 93 88 76 68 66 58 54 55 50 39 24 13 8 5 7 9 10 23 27 14 8 4 360 358 355 354 354 352 348 342 339 339 335 332 330 328 327 325 322 321 319 318 318 317 316 317 318 318 318 318
21 147 197 139 101 266 243 240 194 153 266 262 174 130 41 51 96 113 121 140 43 48 262 280 37 124 185 176 251 36 83 106 115 106 96 97 91 77 63 61 62 56 55 52 39 24 14 12 16 20 29 37 42 55 59 35 11 1 358 357 356 357 356 352 347 342 339 337 333 331 330 328 326 324 323 320 317 316 314 311 310 311 312 312 312 313
322 125 146 102 167 222 226 263 205 173 258 347 83 45 24 36 45 50 74 98 61 351 252 253 233 144 109 65 283 303 144 159 154 114 82 94 86 66 54 57 57 50 45 34 20 14 14 22 33 40 44 46 48 50 37 14 3 357 354 352 351 350 347 343 339 335 333 330 328 327 326 325 325 324 324 322 319 317 314 310 308 307 307 307 307 309
359 33 337 338 312 276 108 323 350 34 4 58 67 37 21 356 13 26 358 42 82 269 264 254 209 135 104 16 302 304 268 195 165 136 113 100 82 60 52 55 51 40 30 18 13 14 19 31 39 37 32 28 24 17 8 1 356 353 352 350 348 347 344 341 337 334 331 328 326 324 323 322 321 322 323 321 320 318 316 313 309 306 304 305 306 309
3 310 291 315 323 24 69 355 344 4 30 50 58 57 43 343 5 9 316 352 185 240 258 290 55 94 78 247 255 317 21 13 56 106 104 89 71 52 48 49 41 30 18 11 14 19 24 31 29 22 17 14 10 7 2 359 355 352 351 349 347 346 342 338 335 333 331 328 327 325 323 323 321 320 319 318 316 316 315 314 310 305 302 303 306 308
340 302 317 359 313 6 66 77 338 331 1 13 62 96 84 61 40 309 280 316 286 262 260 319 35 83 86 228 218 34 43 48 58 72 76 69 57 45 40 39 31 19 10 11 20 26 25 23 18 13 12 9 6 4 360 357 355 350 348 347 345 343 340 337 335 333 331 330 327 325 324 323 323 322 320 318 316 313 312 311 308 304 301 300 303 305
9 295 306 82 297 355 47 133 167 179 325 305 192 134 122 145 142 238 240 209 257 280 290 323 40 140 158 102 92 66 54 57 60 60 59 55 45 35 31 30 24 10 6 15 26 24 19 15 13 10 8 5 2 0 357 356 354 351 349 347 345 343 341 338 336 334 333 331 329 327 326 326 326 326 324 322 319 316 314 311 307 304 301 300 301 302
122 257 265 313 311 37 65 213 146 92 19 262 167 91 104 182 152 173 201 182 189 298 318 342 56 154 130 89 66 60 52 46 46 44 44 43 35 28 26 25 17 4 6 20 24 18 15 12 10 6 3 2 1 360 359 358 356 352 349 346 342 341 339 338 339 338 337 334 331 330 330 330 329 328 327 325 322 319 317 314 310 306 303 302 302 302
48 279 283 356 350 83 108 263 81 86 246 239 74 90 226 176 125 114 282 1 77 78 293 126 115 112 111 102 63 52 48 38 38 36 34 35 30 25 23 20 8 0 8 22 19 16 15 10 5 2 2 3 2 1 359 355 352 349 346 343 341 342 343 345 344 340 337 333 331 330 329 327 325 325 324 323 323 322 321 318 315 312 310 308 308 308
136 275 294 19 67 295 97 337 359 53 140 88 119 221 228 83 95 97 25 358 34 77 267 90 131 172 168 131 58 40 40 30 30 28 24 27 24 20 19 12 1 359 12 22 17 16 12 7 3 3 3 2 359 356 352 348 346 345 343 343 346 346 344 341 337 333 331 329 328 327 325 324 322 320 319 317 318 319 318 316 314 312 310 308 307 307
117 291 300 295 167 298 354 44 348 333 65 125 191 214 88 80 347 16 74 34 358 262 279 337 96 156 171 149 62 43 37 25 18 16 15 17 14 12 12 4 356 0 17 20 15 11 6 4 4 3 1 357 352 349 347 344 342 342 342 343 346 341 334 331 330 328 326 326 326 325 323 321 320 320 321 318 314 313 312 311 311 309 308 306 306 306
55 110 287 278 240 314 4 44 357 321 334 29 31 344 23 138 171 191 145 164 172 202 233 314 348 101 77 2 90 71 46 29 19 9 7 7 6 7 7 357 353 2 17 15 9 4 1 2 2 360 354 350 348 345 343 342 343 343 342 342 341 336 335 336 332 329 328 328 328 324 320 320 320 322 323 316 309 307 308 308 309 310 309 309 308 308
3 117 261 287 331 359 354 348 194 199 320 4 30 358 341 336 285 199 339 112 129 161 182 221 281 151 68 37 88 79 53 38 23 9 1 357 359 7 2 351 352 9 16 7 3 359 359 360 356 352 348 345 345 343 343 345 346 343 341 342 341 339 340 337 330 329 331 328 324 321 321 322 322 322 317 311 307 304 302 301 303 305 307 306 305 307
358 136 234 291 333 339 259 257 195 172 188 162 125 74 167 265 333 53 304 321 76 144 171 169 226 181 76 41 70 64 55 42 20 5 353 350 358 4 354 349 359 15 8 0 359 358 357 355 350 347 345 345 345 344 345 347 345 342 341 342 341 340 337 332 330 331 328 322 321 323 324 325 325 324 319 313 309 306 302 301 301 302 303 301 299 300
62 102 81 277 274 266 268 272 117 141 182 130 94 61 112 95 83 122 214 278 332 326 177 145 198 181 94 62 61 47 48 42 17 1 352 352 358 355 350 355 9 5 358 357 358 356 353 350 347 345 344 345 345 344 345 345 342 341 340 340 339 336 333 333 333 329 323 322 326 328 328 329 329 326 318 313 312 311 310 310 308 305 302 299 299 301
18 82 31 296 291 313 313 336 50 45 55 71 24 25 75 49 80 140 171 198 221 315 3 120 267 214 139 81 64 40 23 22 9 359 354 351 352 351 352 1 2 356 355 355 354 352 349 346 344 344 345 345 344 344 344 342 340 338 338 339 337 334 334 335 331 326 326 329 330 330 333 335 331 321 314 314 314 314 315 316 315 312 308 304 303 301
338 168 72 354 341 349 347 355 355 346 24 62 10 3 28 42 44 73 100 74 98 297 79 132 251 230 146 88 61 33 3 356 359 357 355 353 353 352 353 357 355 353 353 352 350 348 345 345 345 346 346 344 343 343 342 339 337 336 338 338 336 336 335 332 329 329 330 331 333 335 337 332 321 314 314 315 315 316 318 318 316 316 315 308 301 296
286 192 107 98 127 305 297 297 289 291 340 34 33 6 6 30 26 348 67 66 90 307 31 129 227 235 131 57 12 3 354 347 352 355 355 356 353 349 348 352 352 351 350 348 347 346 345 346 347 346 344 342 342 341 338 336 336 336 337 336 337 337 334 329 330 330 330 334 337 335 327 317 313 314 316 317 318 319 319 318 319 321 316 304 297 297
102 125 100 146 171 199 220 247 259 265 5 38 33 13 9 9 15 63 85 62 168 342 340 217 226 295 324 357 352 354 357 352 349 351 350 348 347 343 343 348 348 348 348 347 346 345 346 347 346 343 341 341 340 338 336 335 336 336 335 336 338 336 331 329 330 330 332 336 333 321 315 314 316 319 321 322 323 323 322 323 325 321 313 306 304 304
80 359 323 146 196 234 239 267 9 59 63 72 60 31 26 19 31 69 85 287 112 73 298 274 349 345 330 8 4 351 349 349 343 343 341 338 338 339 344 346 347 348 347 346 346 346 346 345 342 339 339 339 338 336 335 335 336 336 336 338 337 333 330 331 331 332 334 334 326 318 318 320 323 325 326 326 327 328 326 321 314 308 307 308 308 307
104 312 295 127 280 297 312 64 92 87 78 73 72 55 41 39 48 73 101 196 95 126 242 307 350 338 326 11 3 347 342 340 337 335 334 333 335 342 349 348 348 348 346 346 346 346 345 342 339 339 338 338 337 336 336 336 336 336 337 337 334 332 332 332 331 332 333 329 324 322 322 325 327 327 328 329 330 330 322 311 304 300 300 300 299 301
105 280 302 85 329 348 20 74 100 99 93 72 62 56 51 57 68 79 93 320 37 179 224 4 344 292 66 17 350 340 337 333 333 333 332 333 339 350 353 350 349 347 345 345 345 343 341 339 338 338 338 338 338 337 337 336 336 336 336 334 333 333 333 332 332 332 329 324 324 325 325 327 329 330 331 331 327 318 309 305 303 301 299 297 297 297
49 318 321 70 35 357 28 67 80 96 102 82 55 39 42 45 46 48 22 353 14 347 343 6 330 278 25 3 338 331 335 336 337 336 333 337 350 356 353 351 348 345 343 343 342 339 338 338 338 338 339 339 338 337 336 335 334 334 334 334 334 333 331 332 332 329 326 324 326 327 326 327 331 334 331 323 314 310 308 307 305 303 303 303 301 301
36 357 350 59 52 321 14 93 99 104 96 76 42 16 27 40 24 359 10 29 22 320 329 349 336 302 337 340 329 327 338 342 342 336 332 341 359 358 354 351 347 342 341 341 340 338 337 337 338 338 339 338 337 336 335 334 333 334 334 333 332 331 330 331 330 327 326 326 327 328 327 329 331 328 320 317 316 316 315 314 312 311 312 312 311 308
62 57 6 48 62 284 284 155 159 114 45 14 1 351 350 66 30 350 18 60 31 31 19 342 318 315 331 335 331 334 342 346 343 333 330 349 4 357 353 350 343 339 339 339 338 337 336 336 337 338 337 336 335 334 333 333 333 333 333 331 330 330 330 330 329 328 328 328 329 328 328 327 325 322 321 322 322 321 321 321 319 318 316 312 307 302
47 79 90 60 96 269 292 334 102 70 338 248 199 8 329 106 38 359 334 91 46 57 69 318 316 331 338 339 334 330 334 338 334 326 327 5 6 355 350 345 339 337 337 337 336 334 334 336 336 335 335 334 333 332 332 333 334 332 331 330 329 329 330 330 330 330 331 330 329 328 327 325 324 324 324 325 324 323 323 321 318 315 311 306 301 299
28 44 341 68 78 271 306 33 42 325 252 206 145 23 1 70 34 359 2 125 49 26 14 344 337 336 333 331 328 325 326 328 328 323 327 4 359 352 345 339 336 336 337 336 335 334 335 336 335 333 334 333 332 332 333 335 334 332 331 330 330 330 331 331 331 332 332 330 328 327 326 325 325 325 325 325 324 323 321 319 316 314 312 309 307 305
67 64 51 55 55 344 9 36 1 236 240 237 26 12 8 15 6 358 9 155 5 11 15 349 331 331 335 332 331 332 328 326 327 320 311 346 348 345 341 337 334 335 335 335 335 335 335 334 333 332 332 331 332 334 335 335 334 333 331 331 332 332 332 333 334 333 332 329 327 326 325 325 325 325 325 325 323 322 321 320 318 317 317 315 314 314
83 110 69 51 53 70 66 308 285 247 353 1 9 353 347 337 333 337 314 234 58 43 19 350 331 336 340 337 336 337 332 327 326 302 311 335 341 340 337 335 333 333 333 333 333 334 334 332 331 331 331 332 335 337 336 335 335 333 332 333 334 334 335 335 335 332 330 327 325 325 325 326 326 325 325 325 323 323 323 323 321 321 322 320 318 317
56 70 79 78 37 72 86 353 349 340 287 294 344 323 323 315 305 301 274 245 56 36 10 355 343 340 341 339 338 340 336 329 320 311 330 335 337 338 335 333 333 333 333 332 333 334 334 332 332 331 332 334 337 337 337 335 335 334 333 334 335 336 337 336 333 331 328 325 325 325 327 328 327 326 325 325 324 324 325 325 324 324 323 321 318 317
42 43 70 76 36 46 80 53 310 247 229 232 316 317 325 320 310 310 272 254 16 13 1 356 348 341 340 338 337 341 342 332 314 323 331 332 333 335 334 333 334 334 332 333 334 333 333 333 332 332 334 337 338 338 337 335 334 334 335 336 337 337 337 334 331 329 327 325 326 328 329 329 329 327 326 325 326 327 327 326 325 324 324 322 320 318
23 13 36 52 34 14 80 80 282 242 181 27 325 321 328 325 324 360 339 271 349 358 353 352 345 337 336 336 337 343 345 324 312 318 325 328 328 330 332 333 334 334 332 333 334 333 333 334 334 335 337 338 338 338 337 335 335 336 337 338 338 337 335 331 327 327 327 327 329 330 331 331 330 329 329 329 329 329 328 328 327 326 325 323 321 320
11 354 30 59 44 355 41 275 297 268 164 343 331 331 338 335 338 88 262 299 338 344 342 343 338 333 336 338 338 336 323 316 315 316 321 326 327 327 330 332 332 331 332 333 333 334 334 334 335 337 338 338 338 338 337 336 336 338 339 339 339 336 333 329 328 328 329 331 332 332 332 333 332 332 332 333 332 331 331 330 328 326 325 324 322 321
12 345 359 53 31 345 47 241 308 280 140 349 337 338 358 0 328 268 316 325 331 329 330 335 333 333 338 337 333 326 319 319 320 320 324 328 327 328 330 331 330 330 332 334 335 335 335 334 336 337 338 339 340 338 337 337 337 339 340 340 338 335 332 330 330 331 333 334 334 334 335 334 334 335 336 336 336 334 332 332 330 328 326 325 323 322
25 345 328 314 290 343 12 10 330 265 333 0 351 349 31 35 299 305 320 320 321 324 329 334 335 336 337 333 328 325 323 324 326 326 327 328 329 330 330 328 328 330 333 335 336 335 335 335 336 337 338 340 340 339 339 340 339 340 341 339 338 335 333 333 334 335 336 336 336 337 337 336 337 339 340 339 338 336 333 333 331 329 328 326 325 324
76 112 293 279 178 81 35 338 313 239 351 5 13 49 41 352 316 323 325 321 329 335 335 335 335 337 337 332 328 328 328 328 329 329 330 330 331 331 328 327 329 331 334 336 335 335 336 336 336 338 338 339 340 340 341 342 341 340 340 340 338 336 334 335 336 337 338 338 338 338 338 338 341 342 342 341 340 338 336 334 332 330 330 329 328 326
77 51 259 240 224 211 223 240 303 1 2 6 32 66 26 355 342 344 340 336 339 339 336 337 335 335 335 332 329 329 330 329 328 330 331 331 330 328 327 327 331 333 334 334 334 335 336 336 337 338 338 339 340 341 343 344 342 341 340 340 339 337 337 337 338 339 339 339 340 340 339 341 344 344 344 343 342 340 338 336 334 333 332 332 331 329
35 3 343 213 304 303 255 252 325 346 351 355 14 19 7 358 348 343 342 342 341 333 332 336 333 330 331 332 330 329 328 327 328 330 332 330 327 326 328 331 334 335 334 334 335 336 337 338 339 339 338 339 341 343 344 345 344 342 341 340 339 339 339 339 340 340 340 340 341 341 342 344 346 345 345 344 344 343 340 338 337 336 335 335 334 332
15 15 20 74 338 327 268 334 359 342 336 338 340 345 347 345 339 337 338 336 331 329 331 333 330 327 329 331 330 328 327 328 330 331 331 329 327 329 332 334 334 335 335 335 336 337 339 340 340 339 338 339 342 343 344 345 345 344 341 340 341 341 341 341 341 340 341 342 342 343 345 347 346 346 345 345 346 345 343 343 342 339 337 336 335 334
337 3 11 348 334 302 269 303 335 328 319 320 334 341 341 337 332 333 334 329 328 332 333 331 329 329 331 331 331 329 329 330 332 331 330 329 329 333 336 335 334 335 336 337 338 340 341 341 340 338 338 340 342 343 345 346 346 345 343 342 343 343 342 342 342 341 342 344 344 345 348 348 347 346 346 345 346 346 345 346 346 342 339 339 337 334
306 328 335 297 308 289 276 309 335 330 313 302 327 334 335 331 326 329 331 329 331 334 333 330 331 334 334 331 330 331 330 331 332 332 330 331 334 336 336 335 334 336 337 338 340 342 343 341 340 339 340 341 342 343 345 346 346 345 345 344 345 345 344 343 343 343 344 346 347 348 350 349 348 348 347 346 347 347 348 349 348 343 341 341 340 336
326 312 341 359 324 284 292 339 346 335 299 299 321 330 331 323 321 327 330 331 334 335 332 331 333 335 334 332 333 333 330 330 333 333 333 334 337 337 336 335 336 337 338 340 341 343 343 342 340 341 341 342 343 344 345 345 345 345 346 346 347 347 345 344 344 344 345 347 349 351 351 350 349 349 349 349 349 349 350 352 353 352 348 345 344 347
356 290 293 308 274 271 302 326 330 318 300 305 320 329 324 316 320 328 331 332 334 333 331 332 333 334 334 336 337 334 330 332 335 336 336 337 338 338 337 337 337 338 340 341 343 344 343 342 342 343 343 343 344 344 344 345 346 346 346 348 348 347 347 347 347 345 346 349 351 352 352 350 349 350 351 351 352 352 351 352 354 357 360 358 357 1
Height
1518 1519 1521 1520 1518 1518 1519 1521 1521 1521 1523 1523 1521 1520 1520 1519 1516 1513 1514 1515 1515 1514 1514 1517 1517 1517 1518 1518 1519 1516 1513 1514 1514 1514 1514 1515 1515 1515 1516 1518 1520 1522 1525 1527 1527 1528 1528 1529 1529 1528 1528 1528 1528 1528 1528 1528 1528 1528 1528 1527 1527 1526 1526 1525 1523 1523 1522 1520 1519 1518 1517 1515 1514 1513 1512 1510 1509 1508 1506 1505 1504 1502 1501 1499 1497 1496
1519 1520 1518 1516 1516 1518 1519 1520 1520 1521 1522 1521 1520 1520 1520 1520 1517 1514 1515 1517 1516 1514 1516 1519 1519 1521 1524 1524 1522 1519 1517 1519 1519 1518 1519 1519 1519 1520 1520 1522 1524 1526 1528 1529 1529 1529 1530 1530 1530 1529 1529 1529 1529 1529 1529 1528 1528 1528 1528 1527 1526 1526 1525 1524 1522 1521 1520 1519 1518 1516 1515 1513 1512 1511 1509 1507 1506 1505 1504 1503 1501 1499 1497 1495 1494 1492
1521 1518 1514 1514 1518 1519 1519 1521 1520 1520 1521 1520 1521 1521 1518 1519 1517 1514 1516 1518 1517 1515 1516 1519 1521 1526 1529 1527 1525 1523 1522 1524 1524 1522 1523 1522 1522 1523 1524 1526 1527 1528 1529 1530 1531 1531 1531 1531 1531 1530 1530 1530 1529 1529 1529 1529 1528 1528 1527 1526 1525 1525 1523 1522 1521 1520 1519 1518 1517 1515 1513 1511 1509 1508 1507 1505 1503 1502 1500 1499 1498 1496 1494 1492 1490 1489
1519 1515 1514 1516 1518 1518 1519 1520 1521 1520 1520 1520 1521 1520 1516 1518 1517 1513 1515 1517 1517 1517 1517 1518 1523 1529 1531 1529 1529 1528 1527 1528 1527 1526 1526 1526 1526 1527 1528 1529 1529 1530 1531 1532 1532 1533 1533 1532 1532 1531 1530 1530 1529 1529 1529 1528 1528 1527 1526 1525 1524 1523 1522 1521 1520 1519 1518 1516 1515 1514 1512 1510 1508 1506 1505 1503 1501 1500 1498 1496 1494 1492 1490 1488 1486 1485
1516 1515 1517 1517 1517 1518 1518 1519 1520 1519 1518 1519 1519 1517 1514 1516 1517 1516 1517 1518 1516 1518 1518 1517 1521 1529 1533 1533 1534 1533 1531 1531 1530 1529 1529 1529 1530 1530 1530 1531 1532 1533 1533 1533 1533 1534 1534 1533 1532 1531 1531 1530 1529 1529 1528 1528 1527 1526 1525 1524 1523 1522 1520 1519 1518 1516 1515 1513 1512 1510 1509 1507 1505 1504 1502 1501 1499 1498 1496 1493 1491 1489 1487 1485 1483 1482
1515 1516 1517 1517 1517 1519 1518 1518 1519 1518 1518 1518 1515 1515 1515 1515 1517 1518 1519 1518 1516 1516 1518 1516 1517 1527 1536 1537 1537 1537 1535 1534 1534 1532 1533 1533 1533 1532 1533 1534 1534 1535 1535 1535 1535 1535 1534 1534 1533 1532 1531 1530 1530 1529 1528 1528 1527 1526 1525 1524 1522 1521 1519 1518 1516 1514 1512 1511 1509 1506 1504 1502 1501 1500 1499 1498 1496 1494 1492 1490 1488 1487 1485 1483 1480 1478
1517 1518 1518 1517 1518 1519 1519 1518 1519 1520 1519 1516 1515 1517 1518 1517 1518 1519 1519 1519 1517 1516 1519 1519 1517 1524 1536 1540 1540 1540 1538 1538 1537 1536 1536 1536 1535 1535 1535 1536 1536 1536 1536 1536 1536 1536 1535 1534 1533 1532 1531 1530 1529 1528 1528 1528 1527 1526 1525 1523 1521 1520 1518 1517 1515 1513 1511 1509 1507 1505 1503 1501 1500 1498 1496 1495 1493 1491 1489 1487 1485 1484 1482 1480 1478 1476
1517 1518 1518 1519 1518 1518 1518 1517 1519 1521 1518 1516 1517 1519 1518 1518 1519 1520 1520 1519 1520 1519 1518 1520 1518 1519 1532 1540 1541 1541 1539 1540 1541 1539 1539 1538 1537 1537 1537 1537 1538 1537 1538 1537 1537 1537 1536 1535 1533 1532 1531 1530 1528 1527 1528 1529 1528 1526 1524 1522 1521 1519 1518 1516 1514 1513 1511 1509 1507 1505 1503 1501 1499 1496 1494 1492 1490 1488 1486 1484 1482 1481 1479 1477 1475 1473
1518 1518 1517 1518 1518 1517 1516 1517 1520 1520 1516 1516 1519 1520 1519 1520 1520 1521 1522 1521 1524 1522 1514 1518 1520 1516 1529 1541 1541 1540 1541 1542 1543 1542 1541 1540 1539 1539 1539 1539 1539 1539 1539 1539 1539 1538 1537 1536 1534 1533 1531 1529 1528 1527 1528 1528 1526 1524 1523 1521 1519 1518 1516 1515 1513 1512 1510 1508 1506 1504 1501 1499 1497 1495 1492 1489 1487 1485 1483 1481 1479 1477 1476 1474 1473 1471
1518 1518 1518 1518 1517 1517 1517 1518 1520 1518 1517 1518 1520 1521 1521 1522 1523 1522 1522 1522 1524 1521 1512 1516 1520 1515 1528 1543 1541 1540 1542 1543 1544 1543 1542 1542 1541 1541 1541 1541 1541 1541 1540 1540 1539 1539 1538 1537 1535 1533 1531 1529 1527 1526 1526 1525 1523 1522 1520 1519 1517 1516 1515 1513 1512 1510 1508 1507 1504 1502 1499 1497 1494 1492 1489 1486 1484 1482 1480 1477 1475 1473 1472 1470 1469 1467
1519 1518 1518 1519 1518 1518 1519 1518 1519 1519 1518 1518 1518 1518 1518 1522 1523 1523 1526 1524 1520 1517 1513 1518 1522 1515 1525 1543 1545 1542 1542 1542 1543 1543 1543 1543 1543 1543 1543 1542 1542 1541 1541 1540 1540 1539 1539 1537 1535 1533 1531 1529 1528 1526 1525 1523 1522 1521 1519 1518 1516 1514 1513 1511 1509 1507 1505 1504 1501 1499 1497 1494 1491 1488 1485 1482 1480 1478 1476 1473 1471 1469 1467 1466 1464 1463
1520 1518 1518 1520 1519 1519 1519 1518 1519 1520 1519 1518 1518 1517 1515 1517 1520 1520 1524 1522 1515 1513 1514 1519 1522 1517 1526 1543 1548 1544 1543 1543 1542 1543 1544 1544 1544 1545 1544 1544 1543 1542 1541 1540 1539 1539 1538 1536 1534 1532 1531 1529 1528 1526 1525 1523 1522 1520 1518 1516 1514 1512 1511 1509 1507 1505 1503 1501 1499 1496 1494 1491 1488 1485 1482 1479 1476 1474 1472 1469 1467 1465 1463 1461 1460 1458
1518 1519 1520 1520 1519 1520 1518 1516 1517 1519 1519 1517 1518 1517 1514 1516 1519 1515 1517 1521 1516 1512 1517 1520 1517 1523 1539 1548 1546 1544 1544 1544 1543 1543 1545 1545 1546 1546 1545 1545 1543 1542 1541 1540 1540 1539 1537 1536 1534 1533 1531 1529 1528 1526 1524 1522 1520 1519 1517 1515 1512 1510 1508 1506 1504 1502 1500 1498 1496 1494 1491 1488 1486 1483 1480 1476 1473 1471 1469 1466 1463 1461 1459 1457 1455 1454
1516 1519 1521 1519 1518 1519 1518 1516 1515 1516 1517 1516 1517 1517 1516 1520 1524 1521 1520 1524 1519 1513 1519 1522 1519 1531 1549 1548 1544 1547 1547 1546 1546 1546 1547 1547 1547 1547 1546 1545 1543 1542 1542 1542 1541 1539 1538 1537 1534 1533 1531 1529 1527 1525 1523 1521 1519 1517 1514 1512 1510 1508 1506 1504 1501 1499 1497 1495 1493 1490 1488 1485 1482 1479 1476 1473 1470 1467 1465 1463 1460 1458 1456 1453 1451 1449
1520 1517 1517 1518 1517 1519 1519 1519 1519 1518 1518 1519 1521 1520 1517 1519 1522 1521 1519 1519 1519 1518 1521 1522 1524 1538 1549 1546 1547 1550 1548 1547 1547 1547 1548 1548 1547 1547 1546 1545 1544 1544 1545 1543 1542 1540 1538 1537 1534 1532 1530 1528 1526 1524 1522 1520 1517 1515 1513 1510 1508 1505 1503 1501 1498 1496 1494 1492 1489 1487 1484 1482 1479 1475 1472 1469 1467 1464 1462 1459 1457 1455 1453 1450 1447 1445
1525 1518 1517 1520 1519 1520 1520 1520 1522 1521 1518 1521 1523 1520 1517 1519 1519 1521 1523 1525 1526 1526 1523 1526 1536 1543 1546 1547 1550 1550 1548 1548 1548 1547 1548 1547 1548 1548 1547 1547 1547 1547 1546 1544 1542 1540 1538 1536 1534 1532 1530 1528 1526 1524 1522 1519 1517 1514 1511 1509 1506 1504 1501 1498 1496 1494 1492 1489 1486 1483 1481 1478 1475 1472 1469 1466 1463 1461 1458 1456 1454 1451 1449 1446 1443 1441
1526 1518 1518 1521 1520 1521 1521 1521 1522 1521 1518 1520 1521 1518 1520 1523 1521 1520 1525 1530 1532 1528 1524 1534 1546 1546 1546 1548 1551 1551 1550 1551 1551 1550 1550 1550 1550 1550 1550 1550 1549 1547 1546 1544 1542 1540 1538 1536 1534 1532 1530 1528 1525 1523 1521 1518 1516 1513 1510 1507 1503 1501 1498 1496 1494 1491 1488 1486 1482 1480 1477 1474 1471 1468 1465 1463 1460 1457 1454 1452 1450 1447 1444 1441 1439 1436
1530 1522 1518 1521 1520 1520 1522 1521 1522 1522 1520 1519 1518 1519 1522 1524 1523 1524 1523 1525 1531 1529 1523 1532 1545 1545 1546 1548 1550 1552 1553 1553 1554 1554 1553 1553 1552 1551 1551 1550 1549 1547 1545 1544 1542 1540 1538 1536 1534 1532 1529 1527 1524 1521 1518 1515 1513 1510 1507 1504 1501 1498 1496 1493 1491 1489 1485 1482 1479 1476 1473 1470 1468 1465 1462 1460 1457 1454 1451 1448 1445 1442 1439 1436 1434 1431
1533 1525 1519 1521 1521 1521 1523 1522 1520 1521 1522 1520 1519 1521 1522 1520 1520 1524 1524 1522 1527 1531 1528 1534 1545 1547 1545 1549 1553 1556 1557 1556 1556 1555 1553 1552 1551 1550 1550 1549 1547 1546 1544 1543 1541 1539 1537 1535 1532 1530 1527 1524 1522 1518 1515 1513 1510 1507 1504 1502 1500 1497 1494 1492 1489 1486 1482 1480 1477 1473 1470 1467 1464 1461 1459 1456 1454 1450 1446 1443 1440 1437 1434 1431 1428 1426
1534 1529 1521 1520 1523 1522 1521 1520 1519 1519 1521 1521 1521 1522 1522 1521 1520 1522 1524 1524 1526 1532 1534 1534 1541 1550 1552 1553 1556 1558 1558 1558 1556 1555 1553 1552 1552 1550 1549 1547 1545 1544 1543 1541 1539 1537 1535 1533 1530 1528 1524 1521 1518 1515 1513 1510 1507 1505 1502 1500 1498 1494 1491 1489 1486 1482 1478 1475 1472 1469 1465 1462 1459 1457 1454 1452 1448 1445 1441 1438 1434 1431 1429 1426 1423 1421
1533 1532 1525 1520 1522 1521 1520 1521 1522 1522 1521 1521 1520 1520 1521 1522 1524 1524 1526 1529 1527 1529 1534 1532 1536 1552 1558 1554 1556 1558 1558 1558 1556 1556 1555 1553 1552 1551 1550 1548 1546 1544 1543 1540 1539 1536 1533 1531 1528 1525 1522 1519 1516 1513 1511 1509 1506 1504 1500 1497 1495 1491 1488 1485 1481 1478 1475 1471 1467 1464 1460 1457 1454 1452 1449 1446 1443 1439 1436 1432 1429 1426 1423 1420 1418 1416
1533 1533 1530 1525 1521 1519 1521 1525 1526 1525 1525 1524 1522 1523 1525 1524 1525 1524 1527 1534 1532 1529 1534 1534 1535 1552 1561 1555 1557 1558 1556 1557 1558 1557 1556 1554 1553 1552 1550 1548 1546 1544 1542 1540 1538 1534 1531 1528 1525 1522 1520 1518 1515 1512 1510 1507 1505 1501 1498 1495 1491 1488 1486 1482 1478 1475 1471 1467 1463 1459 1456 1452 1449 1447 1444 1440 1437 1434 1430 1427 1424 1420 1417 1414 1411 1410
1536 1536 1535 1529 1524 1524 1525 1527 1528 1528 1528 1527 1526 1528 1530 1528 1527 1527 1527 1532 1533 1531 1535 1535 1536 1552 1562 1557 1557 1558 1558 1559 1559 1558 1557 1555 1553 1552 1550 1548 1546 1544 1541 1538 1536 1533 1530 1528 1525 1523 1520 1517 1515 1512 1509 1506 1503 1499 1496 1493 1489 1486 1483 1479 1476 1472 1467 1463 1459 1455 1451 1448 1445 1443 1439 1435 1431 1428 1425 1422 1418 1415 1412 1408 1405 1404
1537 1536 1534 1528 1525 1526 1526 1526 1528 1529 1528 1528 1530 1532 1533 1531 1531 1532 1532 1533 1533 1533 1537 1536 1538 1553 1561 1558 1558 1559 1559 1560 1559 1558 1557 1555 1554 1552 1549 1547 1544 1542 1540 1537 1535 1533 1531 1528 1525 1522 1519 1516 1513 1510 1507 1504 1500 1497 1493 1490 1486 1482 1479 1476 1472 1468 1463 1459 1454 1451 1447 1444 1442 1439 1435 1431 1427 1423 1419 1416 1412 1409 1406 1403 1401 1400
1535 1534 1535 1531 1526 1525 1526 1526 1526 1527 1529 1530 1534 1537 1536 1536 1536 1535 1537 1538 1536 1539 1544 1540 1540 1551 1559 1558 1559 1561 1561 1560 1560 1558 1556 1554 1552 1549 1547 1545 1542 1540 1539 1537 1535 1533 1530 1527 1524 1521 1517 1514 1511 1507 1504 1501 1497 1493 1489 1486 1483 1478 1475 1472 1468 1463 1459 1455 1450 1447 1445 1442 1438 1434 1430 1426 1421 1417 1413 1410 1406 1404 1402 1400 1398 1395
1536 1535 1536 1533 1531 1529 1528 1529 1529 1529 1532 1535 1538 1541 1539 1539 1538 1535 1536 1537 1538 1546 1550 1546 1545 1551 1556 1558 1559 1559 1558 1556 1554 1553 1552 1550 1548 1546 1545 1543 1542 1540 1538 1536 1533 1530 1527 1524 1521 1518 1515 1511 1508 1504 1500 1496 1493 1489 1486 1483 1480 1476 1472 1468 1464 1460 1456 1452 1448 1445 1442 1438 1434 1430 1425 1421 1416 1412 1408 1405 1402 1400 1399 1396 1393 1389
1538 1538 1537 1534 1533 1532 1530 1532 1535 1534 1536 1539 1544 1546 1545 1544 1542 1538 1540 1545 1549 1552 1550 1548 1552 1554 1556 1560 1559 1556 1555 1553 1551 1550 1548 1548 1547 1546 1545 1543 1541 1539 1537 1534 1531 1527 1524 1521 1518 1515 1512 1509 1506 1502 1498 1494 1490 1487 1483 1479 1476 1474 1470 1465 1461 1457 1452 1449 1446 1442 1438 1434 1429 1425 1420 1416 1411 1407 1404 1402 1399 1397 1395 1391 1388 1385
1538 1536 1539 1539 1536 1534 1534 1537 1538 1538 1542 1547 1549 1551 1551 1549 1546 1544 1548 1553 1555 1554 1549 1548 1553 1554 1556 1562 1561 1558 1557 1555 1553 1552 1549 1548 1547 1545 1543 1541 1539 1537 1534 1532 1529 1525 1523 1519 1516 1513 1509 1506 1503 1499 1496 1492 1489 1485 1481 1477 1474 1471 1466 1462 1457 1453 1449 1447 1443 1438 1433 1429 1424 1420 1416 1411 1407 1404 1401 1399 1395 1393 1389 1385 1382 1380
1539 1536 1541 1542 1537 1537 1539 1541 1541 1543 1549 1553 1553 1554 1555 1553 1551 1551 1554 1555 1554 1553 1551 1552 1555 1556 1559 1563 1561 1559 1559 1556 1554 1553 1551 1549 1546 1544 1542 1540 1537 1535 1532 1530 1527 1525 1522 1518 1515 1511 1507 1504 1501 1497 1493 1489 1485 1482 1478 1475 1471 1467 1463 1459 1454 1449 1446 1443 1439 1434 1429 1424 1419 1415 1411 1407 1404 1401 1398 1395 1391 1388 1384 1380 1377 1374
1539 1538 1542 1543 1538 1541 1544 1543 1543 1546 1550 1555 1557 1557 1557 1557 1556 1556 1556 1556 1554 1553 1555 1558 1559 1558 1560 1561 1560 1560 1559 1557 1556 1553 1550 1548 1545 1542 1541 1538 1536 1533 1530 1528 1525 1522 1520 1516 1513 1510 1506 1502 1498 1494 1490 1485 1481 1478 1474 1471 1467 1463 1459 1455 1450 1447 1443 1438 1434 1429 1424 1420 1415 1411 1407 1404 1401 1398 1394 1390 1386 1382 1378 1374 1371 1368
1539 1539 1544 1542 1538 1542 1548 1547 1547 1549 1551 1556 1560 1559 1558 1558 1557 1557 1557 1558 1556 1555 1558 1562 1562 1559 1559 1560 1560 1560 1558 1556 1554 1551 1549 1547 1544 1541 1539 1537 1534 1531 1529 1527 1524 1521 1517 1514 1510 1507 1503 1499 1496 1492 1488 1483 1479 1475 1471 1467 1463 1460 1456 1452 1448 1444 1440 1435 1429 1425 1420 1415 1411 1407 1404 1401 1397 1393 1388 1384 1379 1375 1371 1367 1364 1361
1541 1541 1544 1542 1537 1541 1547 1548 1550 1553 1551 1553 1559 1562 1560 1560 1560 1560 1560 1561 1561 1561 1562 1563 1562 1561 1560 1559 1559 1558 1557 1555 1553 1550 1547 1544 1543 1542 1539 1535 1532 1530 1527 1524 1521 1518 1514 1511 1507 1504 1500 1497 1493 1489 1485 1480 1476 1472 1468 1464 1460 1457 1453 1449 1445 1440 1435 1430 1426 1421 1416 1411 1407 1404 1400 1396 1391 1386 1381 1376 1372 1368 1364 1361 1358 1356
1546 1544 1544 1544 1540 1541 1546 1548 1550 1550 1545 1549 1561 1565 1562 1563 1564 1562 1562 1564 1564 1564 1565 1565 1564 1562 1560 1558 1556 1554 1553 1553 1552 1549 1547 1544 1542 1540 1537 1535 1533 1530 1527 1524 1520 1517 1513 1510 1506 1503 1500 1496 1492 1488 1484 1480 1475 1470 1466 1462 1457 1453 1448 1444 1440 1435 1430 1426 1421 1417 1413 1408 1404 1399 1394 1389 1384 1379 1375 1370 1366 1363 1360 1357 1353 1350
1549 1547 1546 1547 1544 1540 1545 1550 1549 1545 1544 1553 1565 1566 1562 1563 1564 1563 1563 1565 1565 1565 1566 1566 1564 1562 1560 1559 1557 1553 1552 1552 1551 1549 1547 1544 1540 1537 1535 1535 1533 1530 1527 1524 1521 1517 1513 1509 1506 1502 1499 1495 1491 1487 1483 1479 1474 1470 1465 1461 1455 1450 1445 1440 1435 1431 1425 1421 1417 1413 1409 1404 1399 1394 1388 1383 1379 1374 1370 1366 1362 1359 1356 1351 1347 1343
1548 1547 1547 1549 1548 1544 1546 1547 1542 1540 1550 1562 1566 1564 1563 1563 1562 1563 1564 1566 1566 1566 1565 1565 1564 1562 1561 1560 1558 1555 1553 1551 1549 1547 1545 1542 1539 1537 1536 1535 1532 1529 1526 1523 1519 1515 1511 1508 1504 1500 1496 1492 1488 1484 1480 1476 1471 1467 1462 1458 1452 1447 1442 1437 1431 1427 1422 1417 1413 1409 1405 1400 1394 1388 1383 1378 1374 1370 1366 1361 1357 1353 1349 1345 1340 1337
1548 1548 1547 1549 1550 1548 1548 1548 1544 1548 1560 1566 1564 1563 1564 1563 1562 1563 1565 1566 1567 1566 1565 1565 1564 1562 1560 1558 1556 1554 1551 1548 1546 1544 1542 1540 1539 1539 1537 1534 1530 1527 1524 1521 1518 1513 1509 1506 1502 1498 1494 1489 1485 1481 1476 1472 1468 1462 1457 1453 1448 1443 1438 1433 1428 1423 1419 1415 1410 1406 1401 1396 1390 1384 1378 1373 1369 1365 1361 1356 1352 1348 1343 1338 1334 1331
1548 1548 1548 1549 1552 1553 1553 1553 1555 1559 1563 1567 1569 1569 1569 1569 1568 1568 1568 1566 1566 1566 1565 1564 1562 1560 1558 1556 1554 1552 1548 1544 1542 1542 1541 1540 1539 1539 1536 1533 1529 1525 1522 1519 1515 1512 1508 1504 1500 1496 1491 1487 1482 1478 1473 1469 1464 1459 1453 1448 1444 1439 1434 1429 1424 1420 1416 1412 1407 1402 1397 1392 1387 1380 1374 1369 1364 1359 1355 1351 1347 1342 1338 1333 1328 1325
1550 1551 1549 1549 1555 1559 1556 1555 1557 1556 1558 1568 1575 1573 1571 1571 1569 1570 1570 1566 1564 1565 1565 1563 1562 1559 1557 1555 1553 1551 1547 1541 1538 1538 1540 1539 1538 1536 1533 1530 1528 1524 1520 1516 1512 1508 1505 1501 1497 1493 1488 1483 1479 1475 1471 1466 1461 1456 1451 1445 1441 1436 1431 1426 1421 1417 1413 1408 1403 1399 1394 1389 1383 1377 1371 1366 1360 1355 1350 1346 1342 1337 1334 1329 1324 1320
1553 1555 1554 1553 1559 1563 1560 1558 1557 1554 1559 1573 1577 1572 1570 1569 1567 1568 1568 1563 1563 1565 1564 1562 1562 1559 1557 1556 1553 1551 1549 1545 1537 1534 1535 1535 1533 1532 1530 1526 1524 1521 1517 1514 1510 1506 1502 1498 1494 1489 1485 1480 1476 1472 1468 1464 1459 1454 1449 1444 1439 1434 1429 1424 1419 1415 1410 1405 1399 1394 1389 1384 1379 1374 1368 1362 1357 1352 1347 1342 1338 1333 1329 1325 1321 1316
1558 1560 1561 1561 1565 1567 1565 1562 1559 1558 1566 1575 1574 1570 1569 1567 1566 1567 1562 1557 1561 1565 1563 1561 1561 1559 1557 1556 1554 1551 1552 1550 1541 1535 1534 1532 1529 1528 1527 1523 1520 1518 1514 1510 1507 1503 1499 1495 1491 1486 1482 1477 1472 1468 1465 1460 1455 1451 1446 1441 1436 1432 1428 1424 1419 1413 1407 1401 1395 1390 1385 1380 1375 1369 1364 1359 1354 1349 1344 1339 1334 1329 1325 1321 1317 1312
1568 1569 1569 1569 1570 1569 1568 1565 1561 1563 1571 1574 1571 1570 1568 1564 1564 1565 1561 1560 1563 1564 1562 1562 1561 1559 1557 1555 1553 1552 1551 1550 1545 1539 1535 1532 1528 1525 1523 1521 1518 1516 1512 1508 1504 1499 1495 1492 1488 1485 1481 1477 1472 1467 1462 1457 1452 1447 1442 1438 1433 1429 1425 1421 1416 1410 1404 1398 1392 1386 1381 1376 1370 1365 1360 1356 1351 1345 1340 1336 1331 1326 1322 1317 1313 1308
1576 1576 1574 1574 1574 1573 1573 1571 1563 1563 1571 1575 1571 1568 1567 1565 1566 1567 1566 1567 1566 1563 1563 1562 1560 1558 1556 1554 1553 1551 1548 1546 1543 1538 1535 1532 1528 1523 1520 1518 1515 1511 1508 1505 1501 1497 1492 1488 1484 1481 1478 1474 1470 1466 1461 1455 1450 1445 1440 1435 1431 1427 1422 1417 1411 1405 1399 1393 1388 1382 1377 1372 1367 1362 1356 1352 1347 1342 1336 1332 1328 1323 1319 1314 1309 1305
1581 1579 1576 1577 1578 1578 1576 1572 1564 1563 1570 1574 1570 1568 1569 1571 1572 1571 1570 1569 1567 1564 1563 1560 1558 1557 1555 1552 1551 1548 1545 1542 1539 1536 1533 1529 1526 1523 1519 1516 1512 1508 1504 1501 1498 1495 1490 1486 1481 1478 1474 1470 1467 1463 1458 1453 1447 1442 1438 1433 1428 1423 1418 1412 1406 1400 1394 1389 1383 1378 1373 1368 1363 1358 1353 1348 1344 1339 1334 1329 1324 1320 1316 1311 1307 1302
1583 1583 1581 1580 1580 1580 1578 1573 1570 1571 1573 1573 1571 1572 1573 1573 1573 1572 1570 1567 1565 1563 1561 1558 1557 1556 1553 1551 1548 1544 1541 1539 1536 1533 1530 1526 1524 1521 1518 1514 1510 1506 1502 1499 1496 1492 1488 1483 1479 1475 1471 1468 1465 1460 1456 1450 1444 1439 1435 1431 1426 1420 1413 1407 1402 1396 1390 1384 1379 1373 1368 1364 1359 1354 1350 1345 1341 1336 1331 1326 1322 1317 1312 1308 1304 1300
1584 1585 1584 1582 1581 1581 1578 1575 1574 1575 1575 1574 1573 1573 1574 1573 1572 1570 1568 1566 1563 1561 1560 1557 1555 1553 1551 1549 1545 1541 1539 1536 1533 1531 1528 1524 1522 1519 1516 1512 1509 1504 1501 1497 1494 1490 1486 1481 1477 1472 1468 1465 1462 1457 1453 1448 1443 1437 1432 1427 1422 1416 1410 1403 1397 1392 1387 1381 1375 1370 1365 1360 1355 1350 1346 1343 1339 1334 1329 1324 1319 1314 1310 1306 1302 1297
1585 1584 1583 1582 1582 1580 1577 1575 1576 1575 1574 1574 1573 1573 1572 1571 1569 1568 1566 1564 1563 1561 1559 1557 1554 1551 1549 1547 1543 1540 1538 1535 1532 1529 1526 1523 1520 1517 1514 1510 1506 1503 1499 1495 1491 1487 1483 1478 1474 1469 1465 1461 1458 1454 1450 1446 1442 1437 1430 1425 1419 1413 1407 1400 1394 1389 1384 1378 1373 1367 1362 1356 1351 1346 1343 1339 1336 1332 1327 1322 1317 1312 1307 1303 1300 1295
1584 1583 1583 1583 1584 1581 1575 1574 1576 1574 1573 1573 1573 1571 1570 1569 1567 1566 1564 1563 1562 1560 1558 1556 1553 1550 1547 1545 1542 1539 1536 1534 1531 1527 1524 1521 1517 1514 1511 1507 1503 1500 1497 1493 1489 1485 1480 1476 1471 1467 1462 1457 1454 1450 1446 1442 1439 1435 1429 1423 1417 1411 1405 1399 1393 1386 1381 1376 1370 1365 1360 1355 1349 1344 1340 1336 1333 1329 1325 1320 1316 1311 1306 1302 1298 1294
1584 1583 1585 1585 1585 1582 1576 1575 1575 1574 1572 1572 1571 1570 1569 1567 1566 1565 1563 1562 1560 1558 1556 1554 1551 1548 1545 1542 1540 1537 1534 1532 1530 1526 1523 1519 1515 1511 1508 1504 1501 1498 1494 1491 1487 1482 1478 1474 1470 1465 1461 1456 1451 1447 1444 1439 1436 1431 1426 1421 1415 1409 1402 1397 1391 1385 1379 1374 1369 1363 1359 1354 1349 1344 1339 1334 1331 1328 1324 1318 1314 1309 1305 1302 1298 1294
1586 1585 1586 1586 1585 1582 1577 1575 1575 1573 1571 1571 1570 1569 1568 1566 1564 1563 1561 1560 1558 1556 1554 1551 1549 1547 1544 1541 1538 1535 1533 1531 1528 1525 1522 1518 1514 1510 1506 1503 1499 1495 1492 1488 1484 1481 1477 1473 1468 1463 1459 1454 1450 1445 1441 1437 1433 1429 1424 1418 1412 1406 1400 1394 1388 1383 1377 1372 1367 1362 1357 1353 1349 1344 1339 1333 1329 1325 1323 1319 1315 1309 1305 1301 1298 1295
1586 1586 1586 1587 1586 1583 1578 1576 1576 1574 1572 1570 1569 1568 1566 1564 1563 1561 1559 1557 1555 1553 1550 1548 1546 1544 1542 1540 1537 1534 1531 1529 1526 1523 1520 1516 1513 1509 1505 1501 1497 1493 1490 1486 1482 1479 1475 1471 1467 1463 1458 1453 1449 1444 1439 1435 1431 1426 1422 1416 1410 1404 1398 1392 1386 1380 1375 1370 1365 1361 1356 1352 1348 1344 1339 1334 1328 1322 1318 1316 1314 1311 1306 1300 1296 1293
1586 1586 1586 1586 1585 1581 1578 1576 1577 1575 1573 1570 1568 1567 1565 1562 1561 1559 1557 1555 1553 1551 1548 1546 1543 1540 1539 1537 1536 1533 1530 1527 1524 1520 1517 1514 1511 1508 1505 1501 1496 1491 1488 1484 1479 1475 1472 1469 1465 1461 1456 1451 1447 1442 1438 1433 1428 1424 1419 1414 1408 1403 1398 1391 1385 1378 1373 1369 1364 1360 1356 1352 1348 1343 1339 1334 1329 1323 1316 1311 1307 1305 1304 1300 1295 1291